Regional Weather Roundup
Issued by NWS

Home | Current Version | Previous Version | Graphics & Text | Print | Product List | Glossary On
Versions: 1 2 3 4 5 6 7 8 9 10 11 12 13 14 15 16 17 18 19 20 21 22 23 24 25 26 27 28 29 30 31 32 33 34 35 36 37 38 39 40 41 42 43 44 45 46 47 48 49 50
000
ASUS43 KLMK 011910
RWRKY
KENTUCKY REGIONAL WEATHER ROUNDUP
NATIONAL WEATHER SERVICE LOUISVILLE KY
300 PM EDT MON SEP 01 2014

NOTE "FAIR" INDICATES FEW OR NO CLOUDS BELOW 12,000 FEET
WITH NO SIGNIFICANT WEATHER AND/OR OBSTRUCTIONS TO VISIBILITY.

KYZ001>023-026-027-061>063-070>075-012000-
WESTERN AND SOUTH CENTRAL KENTUCKY

CITY           SKY/WX    TMP DP  RH WIND       PRES   REMARKS
PADUCAH        PTSUNNY   86  71  60 SW18G26   29.93F HX  91
HENDERSON      CLOUDY    82  70  65 SW15G23   29.91F
OWENSBORO      MOSUNNY   84  72  65 SW16G26   29.93F
HOPKINSVILLE   DRIZZLE   81  77  89 SW15      30.01F
BOWLING GREEN  PTSUNNY   88  71  57 SW15G24   30.00F HX  94
GLASGOW        PTSUNNY   87  69  55 SW13G23   30.01F HX  91
$$

KYZ024-025-028>034-038-045-046-053-012000-
NORTH CENTRAL KENTUCKY

CITY           SKY/WX    TMP DP  RH WIND       PRES   REMARKS
LOUISVILLE/SDF MOSUNNY   88  72  58 SW22      29.93F HX  94
LOUISVILLE/LOU MOSUNNY   86  71  60 SW9G24    29.94F HX  91
FORT KNOX      MOSUNNY   86  75  70 SW14G21   29.96F HX  95
$$

KYZ035>037-039>044-047>052-055>060-089>105-012000-
NORTHEAST KENTUCKY

CITY           SKY/WX    TMP DP  RH WIND       PRES   REMARKS
LEXINGTON      CLOUDY    80  71  74 SW10G23   30.01F
COVINGTON      PTSUNNY   83  73  72 SW12G20   29.94F
FRANKFORT      PTSUNNY   81  71  71 SW17G24   29.99F
$$

KYZ054-064>069-076>088-106>120-012000-
SOUTHEAST KENTUCKY

CITY           SKY/WX    TMP DP  RH WIND       PRES   REMARKS
JACKSON        MOSUNNY   85  71  63 VRB3      30.07F HX  90
LONDON         MOSUNNY   87  66  49 SW14G20   30.07F
SOMERSET       CLOUDY    86  63  45 SW13G21   30.05F
MIDDLESBORO    MOSUNNY   80  70  70 S6        30.10S
MONTICELLO     PTCLDY    89  69  51 SW17G25   30.07F HX  93
$$



USA.gov is the U.S. government's official web portal to all federal, state and local government web resources and services.